"TOA5","AWS1","CR1000","7964","CR1000.Std.14","CPU:AWS1_114.CR1","64363","TBL110"
"TIMESTAMP","RECORD","Wind_spd_WVc(1)","Wind_spd_WVc(2)","Air_Temp_Avg","Humidity_Avg","SW_upper_Wm2_Avg","Rain_Tot","Press_Avg","Issui_Tot","Depth_cm","SR50A_Raw","Quality","Ground_Temp_Avg(1)","Ground_Temp_Avg(2)","SW_lower_Wm2_Avg","Albedo_Avg","SWC_per(1)","SWC_per(2)","Period(1)","Period(2)"
"TS","RN","","","","","","","","","","","","","","","","","","",""
"","","WVc","WVc","Avg","Avg","Avg","Tot","Avg","Tot","Smp","Smp","Smp","Avg","Avg","Avg","Avg","Smp","Smp","Smp","Smp"
"2013-10-10 00:00:00",98989,0.118,219.7,14.9,92.8,0,0,869.0403,0,-1.958,3.117,204,16.45,16.5,1.477082,0,44.15,49.51,31.81,33.18
"2013-10-10 00:10:00",98990,0.271,318.7,14.64,94,0,0,869.0975,0,-1.593,3.112,214,16.42,16.48,1.200608,0,44.15,49.51,31.81,33.18
"2013-10-10 00:20:00",98991,0.178,351,15.2,90.4,0,0,869.2615,0,-1.895,3.113,214,16.33,16.48,1.924078,0,44.15,49.51,31.81,33.18
"2013-10-10 00:30:00",98992,0.169,2.987,15.16,89.4,0,0,869.3193,0,-2.006,3.115,204,16.35,16.49,2.511222,0,44.15,49.51,31.81,33.18
"2013-10-10 00:40:00",98993,0.255,2.876,15.24,89.7,0,0,869.3282,0,-1.793,3.112,220,16.39,16.49,2.318045,0,44.2,49.51,31.82,33.18
"2013-10-10 00:50:00",98994,0.35,348.8,15.17,90.1,0,0,869.326,0,-1.653,3.112,217,16.31,16.5,1.874926,0,44.15,49.51,31.81,33.18
"2013-10-10 01:00:00",98995,0.166,59.72,15.02,91.1,0,0,869.3284,0,-1.706,3.113,212,16.25,16.49,1.605998,0,44.2,49.51,31.82,33.18
"2013-10-10 01:10:00",98996,0.461,55.4,14.77,93.8,0,0,869.3204,0,-1.619,3.114,217,16.28,16.49,1.284052,0,44.2,49.57,31.82,33.19
"2013-10-10 01:20:00",98997,0.418,23.96,14.83,93.8,0,0,869.3282,0,-1.652,3.112,224,16.24,16.49,1.405264,0,44.25,49.57,31.83,33.19
"2013-10-10 01:30:00",98998,0.12,332.8,15.02,90.6,0,0,869.3341,0,-1.97,3.117,207,16.2,16.49,1.666589,0,44.25,49.57,31.83,33.19
"2013-10-10 01:40:00",98999,0,0,14.11,92.7,0,0,869.3323,0,-1.7,3.12,223,16.2,16.49,0.75375,0,44.25,49.57,31.83,33.19
"2013-10-10 01:50:00",99000,0,0,13.4,95.2,0,0,869.3292,0,-1.512,3.12,230,16.15,16.51,0.8295248,0,44.25,49.57,31.83,33.19
"2013-10-10 02:00:00",99001,0.266,190.3,13.21,96.2,0,0,869.3387,0,-1.527,3.121,240,16.14,16.54,1.022753,0,44.25,49.57,31.83,33.19
"2013-10-10 02:10:00",99002,0.13,189.1,13.22,97.7,0,0,869.4236,0,-1.321,3.118,246,16.17,16.55,1.43192,0,44.25,49.62,31.83,33.2
"2013-10-10 02:20:00",99003,0.031,189.4,13.3,98.2,0,0,869.3506,0,-1.683,3.122,237,16.17,16.52,1.640296,0,44.25,49.62,31.83,33.2
"2013-10-10 02:30:00",99004,0.092,189.4,13.15,98.3,0,0,869.3359,0,-1.455,3.12,234,16.06,16.49,1.530449,0,44.3,49.62,31.85,33.2
"2013-10-10 02:40:00",99005,0,0,13.24,98.5,0,0,869.3359,0,-1.581,3.121,242,16.09,16.52,1.928217,0,44.25,49.62,31.83,33.2
"2013-10-10 02:50:00",99006,0,0,13.26,98.6,0,0,869.4939,0,-1.431,3.12,257,16.01,16.52,1.799418,0,44.3,49.62,31.85,33.2
"2013-10-10 03:00:00",99007,0.06,188.8,12.89,98.6,0,0,869.5718,0,-1.237,3.12,268,16.01,16.53,1.219816,0,44.3,49.62,31.85,33.2
"2013-10-10 03:10:00",99008,0,0,12.83,98.8,0,0,869.5887,0,-1.135,3.119,278,15.99,16.53,1.435746,0,44.3,49.62,31.85,33.2
"2013-10-10 03:20:00",99009,0,0,12.8,98.9,0,0,869.5887,0,-0.449,3.113,333,15.93,16.53,1.617582,0,44.35,49.62,31.86,33.2
"2013-10-10 03:30:00",99010,0.039,188.1,12.71,99,0,0,869.5887,0,0.093,3.107,379,15.9,16.52,1.450899,0,44.3,49.62,31.85,33.2
"2013-10-10 03:40:00",99011,0.015,188.4,12.72,98.9,0,0,869.5634,0,-0.382,3.114,353,15.85,16.51,1.269063,0,44.35,49.68,31.86,33.22
"2013-10-10 03:50:00",99012,0.01,189.4,12.55,99,0,0,869.5128,0,0.352,3.104,401,15.85,16.52,1.238757,0,44.35,49.62,31.86,33.2
"2013-10-10 04:00:00",99013,0,0,13.01,98.8,0,0,869.5887,0,-0.414,3.111,361,15.82,16.53,2.485091,0,44.35,49.62,31.86,33.2
"2013-10-10 04:10:00",99014,0.042,188.3,12.54,99.2,0,0,869.6581,0,0.105,3.109,385,15.75,16.54,1.291793,0,44.35,49.68,31.86,33.22
"2013-10-10 04:20:00",99015,0,0,12.54,99,0,0,869.8392,0,0.183,3.108,418,15.74,16.52,1.386499,0,44.35,49.62,31.86,33.2
"2013-10-10 04:30:00",99016,0.055,187.2,12.24,99.2,0,0,869.8412,0,0.021,3.111,372,15.74,16.49,1.10238,0,44.35,49.68,31.86,33.22
"2013-10-10 04:40:00",99017,0.138,188.2,12.34,99,0,0,869.9382,0,-0.64,3.117,332,15.68,16.48,1.610006,0,44.35,49.68,31.86,33.22
"2013-10-10 04:50:00",99018,0.209,189.3,12.18,99.2,0,0,870.0898,0,-0.081,3.112,366,15.68,16.47,1.072074,0,44.35,49.68,31.86,33.22
"2013-10-10 05:00:00",99019,0.142,186.2,12.31,99.1,0,0,870.1298,0,-0.099,3.111,377,15.64,16.45,0.7500733,0,44.41,49.68,31.87,33.22
"2013-10-10 05:10:00",99020,0.099,186.4,12.61,99.1,0,0,870.3256,0,0.033,3.109,423,15.58,16.44,0.9205444,0,44.41,49.68,31.87,33.22
"2013-10-10 05:20:00",99021,0.228,186.2,12.55,99.3,0,0,870.3445,0,0.237,3.107,416,15.61,16.44,0.3750366,0,44.41,49.73,31.87,33.23
"2013-10-10 05:30:00",99022,0.131,187.9,12.76,99.1,0,0,870.2961,0,0.039,3.108,420,15.57,16.44,0.7046143,0,44.41,49.73,31.87,33.23
"2013-10-10 05:40:00",99023,0.176,171.4,12.78,99.2,0,0,870.3151,0,-0.016,3.109,375,15.56,16.44,0.9546387,0,44.41,49.73,31.87,33.23
"2013-10-10 05:50:00",99024,0.277,180.6,12.72,99.2,0.5225494,0,870.3361,0,-0.702,3.115,314,15.49,16.44,0.685673,0.973,44.41,49.73,31.87,33.23
"2013-10-10 06:00:00",99025,0.194,181.4,12.91,99,2.765976,0,870.3467,0,-1.238,3.12,285,15.51,16.44,1.011462,0.409,44.41,49.73,31.87,33.23
"2013-10-10 06:10:00",99026,0.153,163.3,12.83,99.1,5.441586,0,870.3467,0,-1.418,3.122,259,15.52,16.42,0.731132,0.136,44.46,49.73,31.89,33.23
"2013-10-10 06:20:00",99027,0.28,158.8,12.84,99,8.113267,0,870.3467,0,-1.647,3.124,244,15.48,16.38,1.250122,0.153,44.46,49.73,31.89,33.23
"2013-10-10 06:30:00",99028,0.292,174.1,12.92,99,10.43527,0,870.3467,0,-1.743,3.124,240,15.49,16.36,1.935795,0.185,44.46,49.79,31.89,33.24
"2013-10-10 06:40:00",99029,0.265,172.7,12.77,99.1,19.06323,0,870.4982,0,-1.701,3.125,238,15.48,16.36,4.799711,0.247,44.46,49.79,31.89,33.24
"2013-10-10 06:50:00",99030,0.251,182.3,13,98.8,63.23241,0,870.5993,0,-1.816,3.124,227,15.48,16.38,8.656148,0.165,44.46,49.79,31.89,33.24
"2013-10-10 07:00:00",99031,0.015,185.3,13.33,98.8,30.85399,0,870.5993,0,-1.775,3.121,226,15.46,16.36,7.724239,0.253,44.46,49.79,31.89,33.24
"2013-10-10 07:10:00",99032,0.018,333.9,13.92,98.7,32.60237,0,870.7403,0,-1.861,3.119,220,15.41,16.34,9.122103,0.28,44.46,49.79,31.89,33.24
"2013-10-10 07:20:00",99033,0.058,314.2,14.37,99.4,38.22861,0,870.8266,0,-1.872,3.117,214,15.4,16.34,10.7662,0.289,44.46,49.79,31.89,33.24
"2013-10-10 07:30:00",99034,0.301,320.1,14.52,99.9,86.55068,0,870.8519,0,-1.589,3.114,218,15.4,16.31,13.49374,0.186,44.51,49.84,31.9,33.26
"2013-10-10 07:40:00",99035,0.052,334.5,14.77,98.8,165.0195,0,870.8519,0,-1.521,3.111,211,15.38,16.28,16.20992,0.106,44.46,49.79,31.89,33.24
"2013-10-10 07:50:00",99036,0.033,337.6,15.21,96.3,131.6995,0,870.9256,0,-1.545,3.108,211,15.37,16.27,20.41826,0.155,44.46,49.84,31.89,33.26
"2013-10-10 08:00:00",99037,0.199,336.8,15.59,93.5,154.6377,0,871.0939,0,-1.227,3.105,204,15.36,16.26,19.72422,0.128,44.51,49.79,31.9,33.24
"2013-10-10 08:10:00",99038,0.011,0.646,15.69,92.9,144.7065,0,871.0703,0,-1.024,3.102,204,15.3,16.23,18.06742,0.125,44.46,49.84,31.89,33.26
"2013-10-10 08:20:00",99039,0.276,104.5,16.06,95.6,185.7639,0,871.0397,0,-0.446,3.093,216,15.3,16.2,25.97368,0.139,44.51,49.84,31.9,33.26
"2013-10-10 08:30:00",99040,0.361,120.9,16.96,91.5,236.0229,0,871.0176,0,-0.925,3.094,228,15.36,16.19,32.96733,0.14,44.51,49.84,31.9,33.26
"2013-10-10 08:40:00",99041,0.116,122.1,17.37,86.5,236.9618,0,871.0126,0,-1.358,3.095,228,15.33,16.18,31.10301,0.131,44.51,49.84,31.9,33.26
"2013-10-10 08:50:00",99042,0.297,102.9,17.83,85.2,253.9099,0,871.0119,0,-0.943,3.088,222,15.31,16.17,34.12076,0.134,44.51,49.9,31.9,33.27
"2013-10-10 09:00:00",99043,0.033,132.8,18.35,80.3,270.7265,0,871.0117,0,-1.776,3.094,204,15.3,16.17,34.49548,0.127,44.51,49.84,31.9,33.26
"2013-10-10 09:10:00",99044,0.322,0.79,18.31,83.9,275.9694,0,871.0117,0,-1.539,3.094,204,15.34,16.17,34.43105,0.125,44.51,49.9,31.9,33.27
"2013-10-10 09:20:00",99045,0.089,315.3,18.43,83.3,244.1439,0,871.0117,0,-1.221,3.09,265,15.38,16.17,30.93189,0.127,44.56,49.84,31.91,33.26
"2013-10-10 09:30:00",99046,0.435,336.1,17.88,86.5,225.425,0,871.0117,0,-1.308,3.095,366,15.39,16.17,31.88999,0.141,44.51,49.84,31.9,33.26
"2013-10-10 09:40:00",99047,0.621,14.24,17.02,88.3,263.456,0,871.018,0,-1.504,3.102,209,15.47,16.17,33.47294,0.127,44.51,49.84,31.9,33.26
"2013-10-10 09:50:00",99048,0.686,358.2,16.55,91.9,241.858,0,871.0117,0,-0.879,3.095,219,15.51,16.12,33.01093,0.145,44.56,49.84,31.91,33.26
"2013-10-10 10:00:00",99049,0.348,97.2,17.67,89.6,78.40287,0,871.0117,0,-0.712,3.086,204,15.57,16.1,26.34588,0.347,44.56,49.9,31.91,33.27
"2013-10-10 10:10:00",99050,0.52,335.8,18.15,85.5,78.81527,0,871.0117,0,-1.451,3.095,211,15.64,16.09,28.96267,0.374,44.56,49.84,31.91,33.26
"2013-10-10 10:20:00",99051,0.495,14.51,18.25,85.9,217.1809,0,871.0117,0,-1.268,3.09,221,15.69,16.11,29.1861,0.202,44.51,49.9,31.9,33.27
"2013-10-10 10:30:00",99052,0.422,8.87,18.57,83.7,689.5109,0,871.0117,0,-1.459,3.09,200,15.79,16.08,29.00054,0.042,44.56,49.9,31.91,33.27
"2013-10-10 10:40:00",99053,0.269,321.3,18.87,83,593.0214,0,870.9928,0,-1.036,3.085,227,15.83,16.09,29.86396,0.055,44.51,49.84,31.9,33.26
"2013-10-10 10:50:00",99054,0.404,2.115,19.01,82.2,480.4248,0,870.8832,0,-0.791,3.084,213,15.92,16.09,35.01801,0.101,44.56,49.9,31.91,33.27
"2013-10-10 11:00:00",99055,0.275,315.4,18.93,82.7,86.4741,0,870.7591,0,-1.131,3.085,203,15.99,16.09,43.31903,0.509,44.56,49.9,31.91,33.27
"2013-10-10 11:10:00",99056,0.249,37.1,19.56,78.84,494.1439,0,870.7444,0,-1.096,3.081,210,15.97,16.09,53.14619,0.136,44.51,49.95,31.9,33.28
"2013-10-10 11:20:00",99057,0.326,332.5,19.98,76.14,816.243,0,870.7465,0,-0.966,3.077,205,16.07,16.08,70.75555,0.087,44.51,49.9,31.9,33.27
"2013-10-10 11:30:00",99058,0.272,263.9,20.51,73.16,825.4611,0,870.6307,0,-0.924,3.075,213,16.04,16.04,82.50648,0.1,44.56,49.9,31.91,33.27
"2013-10-10 11:40:00",99059,0.349,116.1,21.11,68.57,825.8066,0,870.5066,0,-0.862,3.071,212,16.14,16.01,90.44395,0.11,44.51,49.9,31.9,33.27
"2013-10-10 11:50:00",99060,0.312,358.1,21.1,66.73,563.8982,0,870.4434,0,-0.924,3.075,212,16.1,16.01,59.36438,0.092,44.56,49.9,31.91,33.27
"2013-10-10 12:00:00",99061,0.398,320.4,20.57,68.96,345.8957,0,870.2625,0,-1.062,3.08,215,16.15,16.02,32.42392,0.055,44.56,49.9,31.91,33.27
"2013-10-10 12:10:00",99062,0.185,59.61,19.76,73.94,205.2621,0,870.254,0,-1.038,3.08,208,16.16,16.04,19.57458,0.075,44.56,49.9,31.91,33.27
"2013-10-10 12:20:00",99063,0.018,49.29,20.03,74.21,378.8935,0,870.254,0,-1.271,3.082,201,16.22,16.04,44.6025,0.104,44.56,49.9,31.91,33.27
"2013-10-10 12:30:00",99064,0.411,85.6,21.21,68.02,743.3992,0,870.2224,0,-1.707,3.078,203,16.23,16.02,97.05567,0.104,44.51,49.9,31.9,33.27
"2013-10-10 12:40:00",99065,0.17,143.1,20.69,70.33,155.5408,0,870.0961,0,-1.253,3.08,204,16.22,16.02,9.516617,0.06,44.56,49.9,31.91,33.27
"2013-10-10 12:50:00",99066,0.245,34.18,20.2,71.29,196.7493,0,869.9951,0,-1.366,3.082,209,16.26,16.04,19.22638,0.097,44.56,49.9,31.91,33.27
"2013-10-10 13:00:00",99067,0.244,51.7,20.08,72.6,283.7575,0,869.9783,0,-1.253,3.08,209,16.29,16.04,33.0677,0.116,44.56,49.9,31.91,33.27
"2013-10-10 13:10:00",99068,0.102,27.9,20.48,71.62,247.9377,0,869.9193,0,-1.437,3.082,224,16.3,16.03,27.43649,0.111,44.56,49.9,31.91,33.27
"2013-10-10 13:20:00",99069,0.166,114,20.28,71.17,249.8544,0,869.7783,0,-1.62,3.084,222,16.37,16.01,28.64454,0.114,44.51,49.9,31.9,33.27
"2013-10-10 13:30:00",99070,0.291,136.6,20.18,70.36,248.574,0,869.7972,0,-1.135,3.08,213,16.42,16,28.17117,0.113,44.56,49.9,31.91,33.27
"2013-10-10 13:40:00",99071,0.376,127.7,20.01,69.32,232.6633,0,869.9972,0,-1.215,3.081,202,16.45,16,26.49354,0.114,44.51,49.95,31.9,33.28
"2013-10-10 13:50:00",99072,0.318,120.4,20.2,69.04,240.6481,0,870.0014,0,-1.286,3.081,216,16.54,16,27.92123,0.116,44.51,49.9,31.9,33.27
"2013-10-10 14:00:00",99073,0.282,139.5,20.19,68.62,254.8503,0,870.0035,0,-1.389,3.082,224,16.59,16,30.24642,0.118,44.56,49.95,31.91,33.28
"2013-10-10 14:10:00",99074,0.309,129,20.13,69,167.8971,0,870.0457,0,-1.437,3.082,221,16.64,16.01,18.56744,0.11,44.51,49.95,31.9,33.28
"2013-10-10 14:20:00",99075,0.27,120.5,20.28,68.98,201.596,0,870.2245,0,-1.356,3.081,221,16.67,16.01,23.49427,0.116,44.51,49.95,31.9,33.28
"2013-10-10 14:30:00",99076,0.294,122.7,20.06,69.12,115.2241,0,870.2477,0,-1.454,3.084,229,16.7,16,11.23211,0.095,44.51,49.95,31.9,33.28
"2013-10-10 14:40:00",99077,0.482,99,19.87,70.17,95.78244,0,870.254,0,-3.04,3.1,282,16.8,16.01,9.531768,0.098,44.51,49.95,31.9,33.28
"2013-10-10 14:50:00",99078,0.364,55.09,19.78,71.6,100.8215,0,870.2603,0,-4.395,3.114,253,16.81,16.02,10.92537,0.108,44.51,49.95,31.9,33.28
"2013-10-10 15:00:00",99079,0.246,43.83,19.36,75.44,78.446,0,870.2708,0,-2.5,3.098,325,16.94,16.04,7.918525,0.101,44.51,49.95,31.9,33.28
"2013-10-10 15:10:00",99080,0.234,61.06,19.26,77.59,113.5863,0,870.3214,0,-2.483,3.096,325,16.91,16.06,13.35281,0.117,44.51,49.95,31.9,33.28
"2013-10-10 15:20:00",99081,0.209,32.81,19.44,77.65,82.82528,0,870.4245,0,-2.373,3.097,309,17,16.11,8.463846,0.102,44.51,49.95,31.9,33.28
"2013-10-10 15:30:00",99082,0.074,356.6,18.81,80.1,80.35088,0,870.5066,0,-1.777,3.094,345,16.98,16.13,8.11166,0.101,44.51,49.95,31.9,33.28
"2013-10-10 15:40:00",99083,0.037,25.62,18.63,80.7,77.7626,0,870.5066,0,-2.087,3.097,307,17.02,16.16,8.058642,0.104,44.51,49.95,31.9,33.28
"2013-10-10 15:50:00",99084,0.07,39.3,18.78,79.61,68.77232,0,870.5066,0,-2.389,3.099,329,17.12,16.17,7.145986,0.104,44.51,49.95,31.9,33.28
"2013-10-10 16:00:00",99085,0.192,132.2,18.62,80.7,53.79244,0,870.5023,0,-1.832,3.095,347,17.07,16.17,5.225999,0.097,44.51,49.95,31.9,33.28
"2013-10-10 16:10:00",99086,0.309,128.1,18.53,80.7,38.88719,0,870.5066,0,-1.498,3.092,371,17.12,16.17,3.927073,0.101,44.46,49.95,31.89,33.28
"2013-10-10 16:20:00",99087,0.342,130,18.51,78.12,35.94542,0,870.4855,0,-1.879,3.095,371,17.22,16.17,4.108847,0.114,44.51,49.95,31.9,33.28
"2013-10-10 16:30:00",99088,0.405,126.4,18.47,76.81,33.10969,0,870.4897,0,-1.737,3.095,362,17.21,16.16,3.874056,0.117,44.46,50.01,31.89,33.3
"2013-10-10 16:40:00",99089,0.239,128.4,18.35,77.12,29.77515,0,870.5066,0,-1.38,3.092,386,17.21,16.14,3.465065,0.116,44.46,49.95,31.89,33.28
"2013-10-10 16:50:00",99090,0.114,84.2,18.33,77.42,19.83046,0,870.515,0,-1.896,3.097,328,17.18,16.12,2.079039,0.104,44.51,50.01,31.9,33.3
"2013-10-10 17:00:00",99091,0.261,97.3,18.24,77.59,9.159168,0,870.515,0,-2.317,3.102,325,17.17,16.14,0.6778651,0.067,44.46,50.01,31.89,33.3
"2013-10-10 17:10:00",99092,0.378,119.9,18.1,78.63,3.774426,0,870.6328,0,-2.118,3.101,321,17.19,16.22,0.007573912,0.002,44.46,50.01,31.89,33.3
"2013-10-10 17:20:00",99093,0.255,94.6,17.97,79.72,0.809086,0,870.576,0,-2.792,3.108,293,17.22,16.25,0,0,44.46,50.01,31.89,33.3
"2013-10-10 17:30:00",99094,0.43,90.9,17.9,80.9,0,0,870.7338,0,-3.047,3.11,246,17.23,16.26,0,0,44.46,50.01,31.89,33.3
"2013-10-10 17:40:00",99095,0.35,96.4,17.79,81.9,0,0,870.7128,0,-3.055,3.111,237,17.23,16.26,0,0,44.46,50.01,31.89,33.3
"2013-10-10 17:50:00",99096,0.224,120.3,17.56,83.8,0,0,870.7465,0,-2.68,3.109,240,17.21,16.26,0,0,44.46,50.01,31.89,33.3
"2013-10-10 18:00:00",99097,0.261,116.9,17.43,84.7,0,0,870.7591,0,-2.506,3.108,259,17.21,16.26,0,0,44.46,50.01,31.89,33.3
"2013-10-10 18:10:00",99098,0.377,138.9,17.23,85.5,0,0,870.7591,0,-3.179,3.115,238,17.21,16.27,0,0,44.46,50.01,31.89,33.3
"2013-10-10 18:20:00",99099,0.254,121.8,17.17,85.9,0,0,870.8981,0,-2.925,3.113,246,17.22,16.3,0,0,44.46,50.06,31.89,33.31
"2013-10-10 18:30:00",99100,0.03,80.3,17.23,86.3,0,0,871.0117,0,-2.973,3.113,248,17.22,16.4,0.04923042,0,44.46,50.06,31.89,33.31
"2013-10-10 18:40:00",99101,0.002,291.3,17.34,85.9,0,0,871.018,0,-2.942,3.112,252,17.22,16.39,0.3029565,0,44.51,50.01,31.9,33.3
"2013-10-10 18:50:00",99102,0.023,294.2,17.23,86.8,0,0,871.1674,0,-2.719,3.111,256,17.22,16.38,0.1666261,0,44.46,50.01,31.89,33.3
"2013-10-10 19:00:00",99103,0.01,201.8,16.96,88,0,0,871.2264,0,-2.996,3.116,242,17.22,16.37,0,0,44.51,50.06,31.9,33.31
"2013-10-10 19:10:00",99104,0.1,182,16.63,88.9,0,0,871.2643,0,-2.744,3.114,247,17.14,16.35,0,0,44.46,50.06,31.89,33.31
"2013-10-10 19:20:00",99105,0.009,148.9,16.56,89.4,0,0,871.26,0,-2.909,3.117,242,17.14,16.35,0,0,44.46,50.06,31.89,33.31
"2013-10-10 19:30:00",99106,0.147,183.5,16.21,90.6,0,0,871.26,0,-2.663,3.116,244,17.14,16.36,0,0,44.46,50.06,31.89,33.31
"2013-10-10 19:40:00",99107,0.193,114,16.43,91.6,0,0,871.2064,0,-2.129,3.108,259,17.1,16.36,0.3597797,0,44.46,50.06,31.89,33.31
"2013-10-10 19:50:00",99108,0.098,48.37,16.74,89.2,0,0,871.1411,0,-1.968,3.105,264,17.09,16.37,0.7915266,0,44.46,50.06,31.89,33.31
"2013-10-10 20:00:00",99109,0.11,307.1,16.98,85.8,0,0,871.1029,0,-1.502,3.1,282,17.06,16.43,0.8862089,0,44.51,50.06,31.9,33.31
"2013-10-10 20:10:00",99110,0.135,284.8,16.89,85.4,0,0,871.2317,0,-2.176,3.11,269,17.08,16.46,0.5643099,0,44.51,50.06,31.9,33.31
"2013-10-10 20:20:00",99111,0.109,152.8,15.97,90.3,0,0,871.2729,0,-1.031,3.101,321,17.08,16.46,0,0,44.51,50.06,31.9,33.31
"2013-10-10 20:30:00",99112,0.222,304.4,16.41,87.9,0,0,871.2782,0,-1.727,3.104,277,17.04,16.44,0.6514236,0,44.46,50.06,31.89,33.31
"2013-10-10 20:40:00",99113,0.079,356.8,16.61,85.6,0,0,871.2858,0,-1.666,3.105,299,16.99,16.42,0.5150861,0,44.51,50.11,31.9,33.33
"2013-10-10 20:50:00",99114,0.144,148.2,15.73,89.5,0,0,871.2764,0,-1.786,3.112,282,17,16.42,0,0,44.46,50.06,31.89,33.31
"2013-10-10 21:00:00",99115,0.155,114.6,15.4,92,0,0,871.2941,0,-2.11,3.114,290,16.97,16.42,0.05681159,0,44.51,50.11,31.9,33.33
"2013-10-10 21:10:00",99116,0.36,131.6,15.5,91.8,0,0,871.32,0,-3.019,3.124,265,16.91,16.45,0.3446585,0,44.46,50.11,31.89,33.33
"2013-10-10 21:20:00",99117,0.21,124.5,15.23,92.4,0,0,871.3372,0,-3.898,3.133,243,16.93,16.48,0.06438815,0,44.46,50.11,31.89,33.33
"2013-10-10 21:30:00",99118,0.562,127.7,14.98,93.4,0,0,871.3284,0,-2.113,3.117,242,16.91,16.49,0.1401411,0,44.46,50.11,31.89,33.33
"2013-10-10 21:40:00",99119,0.562,128,14.92,94.5,0,0,871.3379,0,-3.188,3.127,282,16.85,16.49,0.284073,0,44.46,50.11,31.89,33.33
"2013-10-10 21:50:00",99120,0.465,127.4,15.07,95.1,0,0,871.2596,0,-2.887,3.124,310,16.84,16.49,0.4545241,0,44.51,50.06,31.9,33.31
"2013-10-10 22:00:00",99121,0.385,118.5,15.14,95.1,0,0,871.1228,0,-2.623,3.12,362,16.82,16.5,0.5719625,0,44.51,50.11,31.9,33.33
"2013-10-10 22:10:00",99122,0.291,125.3,15.33,93.6,0,0,871.0221,0,-2.909,3.123,285,16.78,16.5,0.7424173,0,44.51,50.11,31.9,33.33
"2013-10-10 22:20:00",99123,0.404,117,15.32,92.6,0,0,871.0614,0,-3.135,3.124,314,16.82,16.52,0.7083524,0,44.46,50.11,31.89,33.33
"2013-10-10 22:30:00",99124,0.337,118.6,15.26,92,0,0,870.8707,0,-3.093,3.125,344,16.76,16.53,0.4924355,0,44.46,50.11,31.89,33.33
"2013-10-10 22:40:00",99125,0.221,98.4,15.5,90.9,0,0,870.8519,0,-6.726,3.158,212,16.69,16.55,0.678046,0,44.51,50.11,31.9,33.33
"2013-10-10 22:50:00",99126,0,0,15.38,90.5,0,0,870.8435,0,-5.977,3.154,252,16.7,16.57,0.231065,0,44.51,50.11,31.9,33.33
"2013-10-10 23:00:00",99127,0.136,123.9,14.93,92.7,0,0,870.6035,0,-7.116,3.166,200,16.65,16.6,0.06060977,0,44.51,50.11,31.9,33.33
"2013-10-10 23:10:00",99128,0.144,131.8,14.9,93.9,0,0,870.3677,0,-7.925,3.172,190,16.63,16.59,0.2689525,0,44.51,50.11,31.9,33.33
"2013-10-10 23:20:00",99129,0.207,104.1,15.48,91.7,0,0,870.3004,0,-7.661,3.167,187,16.66,16.6,0.9205093,0,44.51,50.11,31.9,33.33
"2013-10-10 23:30:00",99130,0.112,100.3,15.46,89.8,0,0,870.1508,0,-7.566,3.168,186,16.56,16.59,0.4432112,0,44.46,50.17,31.89,33.34
"2013-10-10 23:40:00",99131,0.264,118.9,15.05,91.6,0,0,870.1824,0,-8.4,3.178,189,16.53,16.59,0.1856174,0,44.46,50.17,31.89,33.34
"2013-10-10 23:50:00",99132,0.217,101.4,15.24,91.2,0,0,870.1234,0,-8.7,3.179,182,16.52,16.6,0.5833699,0,44.46,50.17,31.89,33.34
